Regional Weather Roundup
Issued by NWS

Home | Current Version | Previous Version | Text Only | Print | Product List | Glossary On
Versions: 1 2 3 4 5 6 7 8 9 10 11 12 13 14 15 16 17 18 19 20 21 22 23 24 25 26 27 28 29 30 31 32 33 34 35 36 37 38 39 40 41 42 43 44 45 46 47 48 49 50
000
ASUS42 KFFC 041403
RWRGA
WEATHER ROUNDUP FOR GEORGIA
NATIONAL WEATHER SERVICE PEACHTREE CITY GA
1000 AM EDT SAT JUL 04 2015

NOTE: "FAIR" INDICATES FEW OR NO CLOUDS BELOW 12,000 FEET WITH NO
SIGNIFICANT WEATHER AND/OR OBSTRUCTIONS TO VISIBILITY.

* = USE WITH CAUTION. THE STATIONS MARKED WITH AN ASTERISK MAY NOT
REPORT WEATHER SUCH AS PRECIPITATION, FOG, OR THUNDER AND ARE NOT
QUALITY CONTROLLED BY NWS.

THE REMARK "TC" DENOTES TEMPERATURE READING IN DEGREES CELSIUS.

GAZ001>058-041500-
NORTH GEORGIA

CITY           SKY/WX    TMP DP  RH WIND       PRES   REMARKS
ATLANTA        RAIN      69  66  90 W5        30.10S FOG
ATHENS         LGT RAIN  70  68  93 W6        30.10R
CHAMBLEE       LGT RAIN  69  68  96 SW8       30.11R FOG
PEACHTREE CITY CLOUDY    70  68  93 S6        30.11F
ROME           LGT RAIN  70  68  93 SW5       30.07R
WEST ATLANTA   LGT RAIN  69  67  93 SW6       30.11R FOG
GAINESVILLE    LGT RAIN  68  66  93 W12       30.11R
CARTERSVILLE   LGT RAIN  70  67  90 VRB3      30.09R


CITY           SKY/WX    TMP DP  RH WIND       PRES   REMARKS
DALTON*        CLOUDY    68  68 100 S5        30.06R
LAWRENCEVILLE* LGT RAIN  68  61  77 SW9       30.08R FOG
MARIETTA       LGT RAIN  69  68  99 SW8       30.11R FOG
KENNESAW*      CLOUDY   N/A N/A N/A SW10      30.11R
BLAIRSVILLE*     N/A     71  59  66 W7        30.10R
$$

GAZ059>098-102>109-041500-
CENTRAL GEORGIA

CITY           SKY/WX    TMP DP  RH WIND       PRES   REMARKS
AUGUSTA-BUSH   PTSUNNY   79  67  66 W7        30.07R
AUGUSTA-DANIEL PTSUNNY   78  66  66 VRB6      30.09R
COLUMBUS       CLOUDY    74  69  85 CALM      30.10R
MACON          CLOUDY    76  68  76 S5        30.11R
ROBINS AFB     CLOUDY    77  68  74 S5        30.11R


CITY           SKY/WX    TMP DP  RH WIND       PRES   REMARKS
LAGRANGE*      LGT RAIN  73  73 100 CALM      30.10F
SYLVANIA*      PTSUNNY   79  72  79 SW3       30.10R
MILLEDGEVILLE* CLOUDY    73  68  83 W3        30.12R
$$

GAZ099>101-110>166-041500-
SOUTH GEORGIA

CITY           SKY/WX    TMP DP  RH WIND       PRES   REMARKS
SAVANNAH       PTSUNNY   81  69  67 CALM      30.10R
VALDOSTA       PTSUNNY   83  77  82 CALM      30.13R HX  92
ALMA           PTSUNNY   80  75  84 SW7       30.12R
ST SIMONS      SUNNY     83  75  77 W8        30.11R HX  90
FT STEWART     MOSUNNY   82  73  74 SW6       30.08R
ALBANY         CLOUDY    82  76  81 SW9       30.13R
HUNTER AFB     MOSUNNY   84  75  73 NW7       30.07R HX  92
MOODY AFB      PTSUNNY   83  75  77 SW9       30.12R
BRUNSWICK      SUNNY     82  75  78 W6        30.12R


CITY           SKY/WX    TMP DP  RH WIND       PRES   REMARKS
BAINBRIDGE*    MOSUNNY   81  79  94 SW5       30.12R
MOULTRIE*      CLOUDY    79  75  89 CALM      30.14R
VIDALIA*       PTSUNNY   81  68  65 W7        30.12R
WAYCROSS*      PTSUNNY   85  79  82 W8        30.12R HX  98
DOUGLAS*       CLOUDY    81  77  89 SW9       30.14R
$$


USA.gov is the U.S. government's official web portal to all federal, state and local government web resources and services.